Hourly Data Report for July 10, 2021

PRINCE RUPERT
BRITISH COLUMBIA
Current Station Operator: NAVCAN

54°17'10.000" N
130°26'41.000" W
35.40 m
1066482
71022
YPR

Download Data

Hourly Data (July 2021)
Hourly Data Report for July 10, 2021
TIME
LST
Temp Definition
°C
Dew Point Definition
°C
Rel Hum Definition
%
Precip. Amount Definition
mm

Wind Dir Definition
10's deg

Wind Spd Definition
km/h
Visibility Definition
km
Stn Press Definition
kPa
Hmdx Definition


Wind Chill Definition


Weather Definition


00:00 13.3 12.2 93 0.0 30 5 16.1 101.55     LegendNANA
01:00 13.5 12.2 92 0.0 36 5 16.1 101.56     LegendNANA
02:00 13.0 11.6 91 0.0 35 5 16.1 101.57     LegendNANA
03:00 13.3 11.9 91 0.0   0 16.1 101.59     LegendNANA
04:00 12.7 11.6 93 0.0 15 5 16.1 101.58     LegendNANA
05:00 12.8 11.7 93 0.0 9 5 16.1 101.59     LegendNANA
06:00 12.8 11.9 94 0.0   0 16.1 101.65     LegendNANA
07:00 13.6 12.3 92 0.0   0 16.1 101.69     LegendNANA
08:00 14.2 12.1 87 0.0 29 5 16.1 101.73     LegendNANA
09:00 13.8 12.0 89 0.2 32 5 16.1 101.78     Moderate Rain
10:00 15.0 12.4 85 0.2 33 5 16.1 101.79     LegendNANA
11:00 15.9 11.9 77 0.0 25 9 16.1 101.82     LegendNANA
12:00 16.2 11.5 73 0.0 22 9 16.1 101.86     LegendNANA
13:00 17.0 11.6 70 0.0 24 5 16.1 101.88     LegendNANA
14:00 17.9 11.3 65 0.0 27 8 16.1 101.89     LegendNANA
15:00 16.6 11.6 72 0.0 23 5 16.1 101.91     LegendNANA
16:00 16.7 11.3 70 0.0 LegendMM 4 16.1 101.91     LegendNANA
17:00 16.0 10.9 72 0.0 30 8 16.1 101.92     LegendNANA
18:00 15.3 12.0 81 0.0 32 8 16.1 101.92     LegendNANA
19:00 15.4 11.6 78 0.0 31 8 16.1 101.90     LegendNANA
20:00 15.4 11.6 78 0.0   0 16.1 101.89     LegendNANA
21:00 14.4 11.9 85 0.0 34 4 16.1 101.91     LegendNANA
22:00 14.0 11.9 87 0.0   0 16.1 101.93     LegendNANA
23:00 13.9 12.2 90 0.0   0 16.1 101.92     LegendNANA

Notes on Data Quality.

Legend

  • E = Estimated
  • M = Missing
  • NA = Not Available*
  • [empty] = Indicates an unobserved value
Date modified: